RYR452 LIRA-LIMJ

Flight info

Callsign RYR452
Flight time 0h 54m
Altitude 30000
Route GILIO DCT ELB DCT BETEN DCT SPEZI M729 IDONA
Aircraft B38M/M-SDE1FGHILORVWXY/HB1

Departure

Time 2026-05-08 17:00
Airport Ciampino–G. B. Pastine International Airport (LIRA)

Arrival

Time 2026-05-08 17:54
Airport Genoa Cristoforo Colombo Airport (LIMJ)
Time Latitude Longitude Altitude Speed Heading
2026-05-08 15:55 41.80042 12.58971 408 ft 0 kts 123°
2026-05-08 16:35 41.80051 12.58952 408 ft 3 kts 123°
2026-05-08 16:36 41.80060 12.58934 407 ft 1 kts 123°
2026-05-08 16:36 41.80066 12.58923 406 ft 1 kts 123°
2026-05-08 16:36 41.80066 12.58921 407 ft 0 kts 123°
2026-05-08 16:37 41.80071 12.58911 402 ft 3 kts 123°
2026-05-08 16:37 41.80079 12.58896 404 ft 0 kts 123°
2026-05-08 16:39 41.80077 12.58899 405 ft 0 kts 123°
2026-05-08 16:42 41.80076 12.58901 406 ft 0 kts 123°
2026-05-08 16:44 41.80075 12.58902 406 ft 0 kts 123°
2026-05-08 16:47 41.80075 12.58903 406 ft 0 kts 123°
2026-05-08 16:54 41.80074 12.58905 408 ft 1 kts 120°
2026-05-08 16:54 41.80074 12.58906 408 ft 0 kts 114°
2026-05-08 16:55 41.80077 12.58917 408 ft 4 kts 64°
2026-05-08 16:55 41.80111 12.58971 408 ft 12 kts 47°
2026-05-08 16:55 41.80180 12.59068 409 ft 15 kts 34°
2026-05-08 16:55 41.80283 12.59043 409 ft 17 kts 333°
2026-05-08 16:56 41.80399 12.58962 409 ft 20 kts 332°
2026-05-08 16:56 41.80525 12.58874 408 ft 21 kts 333°
2026-05-08 16:56 41.80651 12.58789 407 ft 18 kts 333°
2026-05-08 16:56 41.80728 12.58770 410 ft 3 kts 41°
2026-05-08 16:57 41.80732 12.58777 409 ft 0 kts 53°
2026-05-08 16:59 41.80757 12.58828 416 ft 17 kts 62°
2026-05-08 16:59 41.80745 12.58935 421 ft 3 kts 150°
2026-05-08 16:59 41.80634 12.59012 415 ft 56 kts 153°
2026-05-08 16:59 41.80038 12.59418 418 ft 134 kts 153°
2026-05-08 17:00 41.79033 12.60115 577 ft 184 kts 157°
2026-05-08 17:00 41.77686 12.60595 1098 ft 217 kts 169°
2026-05-08 17:00 41.76193 12.60476 2246 ft 208 kts 202°
2026-05-08 17:00 41.74902 12.59536 3229 ft 220 kts 221°
2026-05-08 17:01 41.73962 12.57888 3568 ft 226 kts 249°
2026-05-08 17:01 41.73674 12.55833 3768 ft 226 kts 277°
2026-05-08 17:01 41.74020 12.53791 4382 ft 224 kts 287°
2026-05-08 17:01 41.74422 12.51762 5349 ft 230 kts 286°
2026-05-08 17:02 41.74853 12.49603 6047 ft 249 kts 286°
2026-05-08 17:02 41.75329 12.47282 6681 ft 268 kts 287°
2026-05-08 17:02 41.75846 12.44805 7403 ft 281 kts 287°
2026-05-08 17:02 41.76376 12.42294 8459 ft 281 kts 287°
2026-05-08 17:03 41.76923 12.39747 9421 ft 285 kts 286°
2026-05-08 17:03 41.77469 12.37220 10372 ft 289 kts 286°
2026-05-08 17:03 41.78045 12.34555 10878 ft 308 kts 286°
2026-05-08 17:03 41.78662 12.31705 11291 ft 328 kts 286°
2026-05-08 17:04 41.79308 12.28712 11850 ft 341 kts 285°
2026-05-08 17:04 41.79972 12.25632 12647 ft 345 kts 285°
2026-05-08 17:04 41.80545 12.22498 13476 ft 349 kts 280°
2026-05-08 17:04 41.81011 12.19282 14226 ft 352 kts 281°
2026-05-08 17:05 41.81491 12.16058 15141 ft 353 kts 281°
2026-05-08 17:05 41.81978 12.12824 15907 ft 355 kts 281°
2026-05-08 17:05 41.82471 12.09573 16654 ft 356 kts 281°
2026-05-08 17:05 41.82965 12.06313 17365 ft 358 kts 281°
2026-05-08 17:06 41.83464 12.03030 18072 ft 361 kts 281°
2026-05-08 17:06 41.83966 11.99709 18640 ft 365 kts 281°
2026-05-08 17:06 41.84470 11.96373 19262 ft 365 kts 281°
2026-05-08 17:06 41.84974 11.93036 19888 ft 366 kts 281°
2026-05-08 17:07 41.85478 11.89683 20494 ft 367 kts 281°
2026-05-08 17:07 41.85982 11.86323 21091 ft 368 kts 281°
2026-05-08 17:07 41.86481 11.82997 21672 ft 369 kts 281°
2026-05-08 17:07 41.86986 11.79616 22248 ft 370 kts 281°
2026-05-08 17:08 41.87493 11.76222 22819 ft 371 kts 281°
2026-05-08 17:08 41.87999 11.72823 23379 ft 372 kts 281°
2026-05-08 17:08 41.88506 11.69409 23865 ft 374 kts 281°
2026-05-08 17:08 41.89016 11.65971 24282 ft 376 kts 280°
2026-05-08 17:09 41.89536 11.62517 24697 ft 379 kts 282°
2026-05-08 17:09 41.90524 11.59237 25127 ft 384 kts 299°
2026-05-08 17:09 41.92204 11.56410 25566 ft 390 kts 308°
2026-05-08 17:09 41.94032 11.53707 25956 ft 393 kts 308°
2026-05-08 17:10 41.95891 11.51007 26368 ft 395 kts 308°
2026-05-08 17:10 41.97773 11.48302 26762 ft 397 kts 309°
2026-05-08 17:10 41.99673 11.45593 27162 ft 399 kts 309°
2026-05-08 17:10 42.01584 11.42873 27551 ft 401 kts 309°
2026-05-08 17:11 42.03508 11.40138 27931 ft 404 kts 309°
2026-05-08 17:11 42.05447 11.37380 28314 ft 406 kts 309°
2026-05-08 17:11 42.07386 11.34619 28686 ft 408 kts 309°
2026-05-08 17:11 42.09315 11.31870 29048 ft 410 kts 309°
2026-05-08 17:12 42.11277 11.29072 29393 ft 412 kts 308°
2026-05-08 17:12 42.13252 11.26252 29690 ft 415 kts 308°
2026-05-08 17:12 42.15242 11.23408 29988 ft 418 kts 308°
2026-05-08 17:12 42.17239 11.20552 30026 ft 418 kts 308°
2026-05-08 17:13 42.21212 11.14860 30010 ft 416 kts 308°
2026-05-08 17:13 42.25179 11.09166 30013 ft 416 kts 308°
2026-05-08 17:14 42.29123 11.03493 30010 ft 417 kts 308°
2026-05-08 17:14 42.33088 10.97779 30009 ft 417 kts 308°
2026-05-08 17:15 42.37049 10.92062 30009 ft 417 kts 308°
2026-05-08 17:15 42.41013 10.86331 30013 ft 417 kts 308°
2026-05-08 17:16 42.44309 10.81559 30010 ft 417 kts 308°
2026-05-08 17:16 42.48269 10.75813 30010 ft 417 kts 308°
2026-05-08 17:17 42.52222 10.70067 30030 ft 417 kts 308°
2026-05-08 17:17 42.56178 10.64305 30011 ft 416 kts 308°
2026-05-08 17:18 42.60103 10.58577 30009 ft 417 kts 308°
2026-05-08 17:18 42.64057 10.52795 30014 ft 419 kts 308°
2026-05-08 17:19 42.68030 10.46973 30012 ft 420 kts 308°
2026-05-08 17:19 42.72009 10.41149 30016 ft 421 kts 310°
2026-05-08 17:20 42.74355 10.38715 29977 ft 429 kts 325°
2026-05-08 17:20 42.76974 10.36726 30029 ft 428 kts 324°
2026-05-08 17:20 42.82140 10.32760 30006 ft 426 kts 325°
2026-05-08 17:21 42.87326 10.28836 30004 ft 426 kts 325°
2026-05-08 17:21 42.92487 10.24933 30009 ft 426 kts 325°
2026-05-08 17:22 42.97675 10.21004 30022 ft 426 kts 325°
2026-05-08 17:22 43.02849 10.17079 29905 ft 420 kts 325°
2026-05-08 17:23 43.05373 10.15160 29586 ft 410 kts 325°
2026-05-08 17:23 43.07819 10.13300 29086 ft 405 kts 325°
2026-05-08 17:23 43.10274 10.11431 28587 ft 401 kts 325°
2026-05-08 17:23 43.12702 10.09580 28071 ft 398 kts 326°
2026-05-08 17:24 43.15111 10.07743 27560 ft 395 kts 326°
2026-05-08 17:24 43.17504 10.05916 27040 ft 392 kts 326°
2026-05-08 17:24 43.19880 10.04100 26568 ft 390 kts 326°
2026-05-08 17:24 43.22244 10.02292 26050 ft 388 kts 326°
2026-05-08 17:25 43.24602 10.00487 25542 ft 387 kts 327°
2026-05-08 17:25 43.26958 9.98682 25042 ft 386 kts 327°
2026-05-08 17:25 43.29299 9.96887 24550 ft 385 kts 327°
2026-05-08 17:25 43.31638 9.95091 24059 ft 385 kts 327°
2026-05-08 17:26 43.33976 9.93295 23573 ft 385 kts 327°
2026-05-08 17:26 43.36310 9.91501 22991 ft 384 kts 327°
2026-05-08 17:26 43.38637 9.89710 22492 ft 382 kts 328°
2026-05-08 17:26 43.40921 9.87950 22030 ft 380 kts 328°
2026-05-08 17:27 43.43220 9.86177 21563 ft 378 kts 328°
2026-05-08 17:27 43.45509 9.84411 21103 ft 376 kts 328°
2026-05-08 17:27 43.47781 9.82656 20664 ft 374 kts 328°
2026-05-08 17:27 43.50046 9.80907 20208 ft 372 kts 328°
2026-05-08 17:28 43.52306 9.79159 19764 ft 371 kts 328°
2026-05-08 17:28 43.54553 9.77419 19328 ft 369 kts 328°
2026-05-08 17:28 43.56797 9.75679 18811 ft 370 kts 329°
2026-05-08 17:28 43.59035 9.73942 18401 ft 368 kts 329°
2026-05-08 17:29 43.61257 9.72216 17944 ft 366 kts 329°
2026-05-08 17:29 43.63468 9.70498 17503 ft 363 kts 329°
2026-05-08 17:29 43.65662 9.68792 17079 ft 360 kts 329°
2026-05-08 17:29 43.67808 9.67122 16671 ft 358 kts 329°
2026-05-08 17:30 43.69972 9.65435 16260 ft 355 kts 329°
2026-05-08 17:30 43.72115 9.63765 15854 ft 353 kts 329°
2026-05-08 17:30 43.74250 9.62099 15449 ft 350 kts 329°
2026-05-08 17:30 43.76366 9.60446 15043 ft 348 kts 329°
2026-05-08 17:31 43.78473 9.58800 14623 ft 347 kts 329°
2026-05-08 17:31 43.80578 9.57154 14195 ft 347 kts 330°
2026-05-08 17:31 43.82672 9.55515 13800 ft 345 kts 330°
2026-05-08 17:31 43.84761 9.53878 13356 ft 343 kts 330°
2026-05-08 17:32 43.86825 9.52260 12930 ft 341 kts 330°
2026-05-08 17:32 43.88858 9.50664 12537 ft 339 kts 330°
2026-05-08 17:32 43.90896 9.49065 12234 ft 333 kts 330°
2026-05-08 17:32 43.92883 9.47503 12089 ft 323 kts 330°
2026-05-08 17:33 43.94810 9.45988 11948 ft 313 kts 330°
2026-05-08 17:33 43.96680 9.44517 11803 ft 304 kts 330°
2026-05-08 17:33 43.98424 9.42937 11629 ft 295 kts 315°
2026-05-08 17:33 43.99649 9.40710 11465 ft 286 kts 304°
2026-05-08 17:34 44.00772 9.38472 11324 ft 277 kts 304°
2026-05-08 17:34 44.01849 9.36328 11179 ft 270 kts 304°
2026-05-08 17:34 44.02906 9.34226 11056 ft 261 kts 307°
2026-05-08 17:34 44.04219 9.32493 10657 ft 264 kts 323°
2026-05-08 17:35 44.05715 9.30944 10025 ft 272 kts 322°
2026-05-08 17:35 44.07333 9.29552 9438 ft 273 kts 342°
2026-05-08 17:35 44.09164 9.29493 9134 ft 260 kts 19°
2026-05-08 17:35 44.10611 9.30796 9032 ft 243 kts 50°
2026-05-08 17:36 44.11649 9.32665 9049 ft 245 kts 53°
2026-05-08 17:36 44.12700 9.34542 9057 ft 246 kts 53°
2026-05-08 17:36 44.13892 9.36237 9014 ft 246 kts 30°
2026-05-08 17:36 44.15501 9.36863 8906 ft 243 kts 356°
2026-05-08 17:37 44.17103 9.36224 8839 ft 242 kts 328°
2026-05-08 17:37 44.18476 9.34860 8799 ft 243 kts 323°
2026-05-08 17:37 44.19849 9.33449 8723 ft 247 kts 322°
2026-05-08 17:37 44.21243 9.32001 8626 ft 252 kts 322°
2026-05-08 17:38 44.22625 9.30555 8522 ft 247 kts 322°
2026-05-08 17:38 44.23975 9.29136 8343 ft 240 kts 322°
2026-05-08 17:38 44.25288 9.27751 8156 ft 234 kts 322°
2026-05-08 17:38 44.26585 9.26380 7848 ft 233 kts 322°
2026-05-08 17:39 44.27740 9.24823 7562 ft 230 kts 300°
2026-05-08 17:39 44.28198 9.22718 7242 ft 228 kts 272°
2026-05-08 17:39 44.28190 9.20511 7137 ft 227 kts 268°
2026-05-08 17:39 44.28158 9.18368 7068 ft 214 kts 268°
2026-05-08 17:40 44.28119 9.16269 6479 ft 226 kts 267°
2026-05-08 17:40 44.28069 9.14010 5937 ft 231 kts 268°
2026-05-08 17:40 44.28016 9.11787 5505 ft 232 kts 267°
2026-05-08 17:40 44.27959 9.09550 5160 ft 229 kts 267°
2026-05-08 17:41 44.27901 9.07380 5003 ft 218 kts 268°
2026-05-08 17:41 44.27844 9.05276 4990 ft 216 kts 268°
2026-05-08 17:41 44.27786 9.03169 5026 ft 217 kts 268°
2026-05-08 17:41 44.27727 9.01062 5031 ft 216 kts 267°
2026-05-08 17:42 44.27670 8.99013 5007 ft 206 kts 267°
2026-05-08 17:42 44.27614 8.97050 4997 ft 201 kts 268°
2026-05-08 17:42 44.27560 8.95129 5009 ft 200 kts 268°
2026-05-08 17:42 44.27504 8.93187 5021 ft 200 kts 268°
2026-05-08 17:43 44.27448 8.91246 5023 ft 200 kts 268°
2026-05-08 17:43 44.27392 8.89311 5024 ft 198 kts 267°
2026-05-08 17:43 44.27337 8.87407 5019 ft 196 kts 267°
2026-05-08 17:43 44.27282 8.85506 4995 ft 196 kts 267°
2026-05-08 17:44 44.27227 8.83642 4785 ft 187 kts 266°
2026-05-08 17:44 44.27174 8.81864 4507 ft 180 kts 267°
2026-05-08 17:44 44.27124 8.80174 4243 ft 171 kts 267°
2026-05-08 17:44 44.27075 8.78524 4067 ft 169 kts 267°
2026-05-08 17:45 44.27026 8.76890 4011 ft 169 kts 267°
2026-05-08 17:45 44.26977 8.75254 4006 ft 169 kts 267°
2026-05-08 17:45 44.26927 8.73622 4022 ft 169 kts 267°
2026-05-08 17:45 44.26877 8.71987 4023 ft 169 kts 267°
2026-05-08 17:46 44.26870 8.70342 4006 ft 169 kts 279°
2026-05-08 17:46 44.27120 8.68749 4051 ft 168 kts 284°
2026-05-08 17:46 44.27412 8.67161 4103 ft 170 kts 285°
2026-05-08 17:46 44.27718 8.65570 4073 ft 169 kts 285°
2026-05-08 17:47 44.28021 8.63986 4042 ft 168 kts 285°
2026-05-08 17:47 44.28324 8.62409 4026 ft 168 kts 285°
2026-05-08 17:47 44.28744 8.60953 3980 ft 158 kts 310°
2026-05-08 17:47 44.29301 8.60310 3968 ft 153 kts 333°
2026-05-08 17:48 44.30650 8.59979 3804 ft 149 kts
2026-05-08 17:48 44.31680 8.60201 3664 ft 151 kts
2026-05-08 17:48 44.32707 8.60458 3324 ft 149 kts 12°
2026-05-08 17:48 44.33706 8.60787 3041 ft 146 kts 13°
2026-05-08 17:49 44.34656 8.61233 3016 ft 143 kts 31°
2026-05-08 17:49 44.35318 8.62262 3070 ft 144 kts 51°
2026-05-08 17:49 44.35905 8.63404 3018 ft 145 kts 51°
2026-05-08 17:49 44.36455 8.64580 2818 ft 145 kts 55°
2026-05-08 17:50 44.36994 8.65774 2678 ft 145 kts 55°
2026-05-08 17:50 44.37507 8.66976 2455 ft 145 kts 57°
2026-05-08 17:50 44.38041 8.68158 2221 ft 142 kts 54°
2026-05-08 17:50 44.38562 8.69320 2020 ft 140 kts 59°
2026-05-08 17:51 44.39000 8.70529 1814 ft 138 kts 62°
2026-05-08 17:51 44.39446 8.71707 1618 ft 136 kts 59°
2026-05-08 17:51 44.39916 8.72865 1412 ft 136 kts 58°
2026-05-08 17:51 44.40461 8.73941 1186 ft 135 kts 50°
2026-05-08 17:52 44.41042 8.74970 977 ft 134 kts 51°
2026-05-08 17:52 44.41573 8.76044 843 ft 135 kts 57°
2026-05-08 17:52 44.42223 8.78509 646 ft 140 kts 86°
2026-05-08 17:53 44.42077 8.79848 493 ft 145 kts 103°
2026-05-08 17:53 44.41769 8.81191 295 ft 145 kts 102°
2026-05-08 17:53 44.41517 8.82548 93 ft 143 kts 102°
2026-05-08 17:53 44.41279 8.83800 15 ft 118 kts 104°
2026-05-08 17:54 44.41110 8.84636 14 ft 66 kts 105°
2026-05-08 17:54 44.41026 8.85107 9 ft 16 kts 88°
2026-05-08 17:54 44.41082 8.85223 11 ft 14 kts 28°
2026-05-08 17:54 44.41172 8.85261 12 ft 14 kts 14°
2026-05-08 17:55 44.41270 8.85270 12 ft 15 kts 329°
2026-05-08 17:55 44.41319 8.85144 12 ft 16 kts 284°
2026-05-08 17:55 44.41328 8.85098 13 ft 5 kts 293°
2026-05-08 17:55 44.41359 8.85082 12 ft 5 kts 22°
2026-05-08 17:56 44.41390 8.85108 12 ft 0 kts 26°
2026-05-08 17:56 44.41396 8.85113 12 ft 0 kts 26°
2026-05-08 17:56 44.41401 8.85116 14 ft 0 kts 26°